Regional Weather Roundup
Issued by NWS

Home | Current Version | Previous Version | Graphics & Text | Print | Product List | Glossary On
Versions: 1 2 3 4 5 6 7 8 9 10 11 12 13 14 15 16 17 18 19 20 21 22 23 24 25 26 27 28 29 30 31 32 33 34 35 36 37 38 39 40 41 42 43 44 45 46 47 48 49 50
000
ASUS45 KBOI 300410
RWRID
WEATHER ROUNDUP FOR IDAHO
NATIONAL WEATHER SERVICE BOISE ID
1000 PM MDT SUN MAR 29 2015

NOTE: "FAIR" INDICATES FEW OR NO CLOUDS BELOW 12000 FEET
WITH NO SIGNIFICANT WEATHER AND/OR OBSTRUCTIONS TO VISIBILITY

IDZ012-014-300500-
SOUTHWEST IDAHO


CITY           SKY/WX    TMP DP  RH WIND       PRES   REMARKS
BOISE          CLEAR     54  28  36 CALM      30.16R
CALDWELL       CLEAR     55  30  38 SW3       30.17S
MOUNTAIN HOME  CLEAR     50  26  39 NW5       30.17R
$$

IDZ016-017-300500-
SOUTHCENTRAL IDAHO


CITY           SKY/WX    TMP DP  RH WIND       PRES   REMARKS
BURLEY         CLEAR     45  23  42 S6        30.19R
JEROME         CLEAR     51  18  27 S3        30.19S
TWIN FALLS     CLEAR     44  20  38 S9        30.20S
$$

IDZ019>023-300500-
SOUTHEAST IDAHO


CITY           SKY/WX    TMP DP  RH WIND       PRES   REMARKS
IDAHO FALLS    CLEAR     48  19  31 S6        30.20S
POCATELLO      CLEAR     46  17  31 S9        30.20S
REXBURG        CLEAR     48  15  26 S9        30.19R
$$

IDZ006-010-011-018-031-032-300500-
CENTRAL IDAHO MOUNTAINS


CITY           SKY/WX    TMP DP  RH WIND       PRES   REMARKS
MCCALL         PTCLDY    42  31  64 N5        30.20S
HAILEY         PTCLDY    45  27  49 W5        30.22R
STANLEY          N/A     35  24  64 SE3       30.26R
SALMON         PTCLDY    46  27  46 SE3       30.16S
CHALLIS        CLEAR     51  23  33 VRB3      30.19R
$$

IDZ002-004-006-007-026-300500-
NORTHERN IDAHO


CITY           SKY/WX    TMP DP  RH WIND       PRES   REMARKS
LEWISTON       MOCLDY    60  41  49 CALM      30.14R
LOWELL           N/A     46  43  89 N5        30.18R
COEUR D`ALENE  CLOUDY    52  32  46 S8        30.13F
MULLAN PASS    MOCLDY    38  29  70 SW6       30.17S WCI  33
$$


USA.gov is the U.S. government's official web portal to all federal, state and local government web resources and services.